QPF
0.00 0.00 0.00 0.00 0.00 0.01 0.01 0.00 0.00 0.00 0.00 0.00 0.00 0.00 0.00 0.00 0.00 0.00 0.00 0.01 0.01 0.01 0.01 0.03 0.05 0.04 0.04 0.04 0.03 0.02 0.02 0.03 0.04 0.03 0.05 0.05 0.04 0.04 0.03 0.03 0.04 0.05 0.04 0.05 0.06 0.04 0.04 0.04 0.02
0.00 0.00 0.00 0.00 0.00 0.00 0.00 0.00 0.00 0.00 0.00 0.00 0.00 0.00 0.00 0.00 0.00 0.00 0.01 0.01 0.01 0.01 0.01 0.03 0.06 0.06 0.04 0.04 0.04 0.03 0.02 0.03 0.03 0.04 0.04 0.05 0.05 0.04 0.03 0.03 0.03 0.04 0.04 0.04 0.04 0.04 0.04 0.04 0.02
0.00 0.00 0.00 0.00 0.00 0.00 0.00 0.00 0.00 0.00 0.00 0.00 0.00 0.00 0.00 0.00 0.00 0.00 0.01 0.01 0.01 0.01 0.01 0.03 0.05 0.07 0.07 0.05 0.04 0.04 0.03 0.03 0.04 0.05 0.05 0.04 0.04 0.03 0.03 0.04 0.04 0.04 0.03 0.03 0.03 0.03 0.03 0.04 0.02
0.00 0.00 0.00 0.00 0.00 0.00 0.00 0.00 0.00 0.00 0.00 0.00 0.00 0.00 0.00 0.00 0.00 0.00 0.01 0.01 0.01 0.01 0.02 0.03 0.05 0.06 0.07 0.06 0.06 0.06 0.05 0.04 0.05 0.05 0.05 0.04 0.03 0.03 0.03 0.03 0.03 0.02 0.03 0.03 0.03 0.03 0.03 0.03 0.02
0.00 0.00 0.00 0.00 0.00 0.00 0.00 0.00 0.00 0.00 0.00 0.00 0.00 0.00 0.00 0.00 0.00 0.00 0.00 0.01 0.01 0.01 0.01 0.02 0.04 0.07 0.06 0.07 0.08 0.08 0.08 0.07 0.08 0.06 0.05 0.04 0.03 0.03 0.02 0.02 0.02 0.03 0.02 0.03 0.03 0.04 0.02 0.02 0.01
0.00 0.00 0.00 0.00 0.00 0.00 0.00 0.00 0.00 0.00 0.00 0.00 0.00 0.00 0.00 0.00 0.00 0.00 0.00 0.00 0.01 0.01 0.01 0.02 0.03 0.05 0.07 0.07 0.06 0.09 0.11 0.09 0.08 0.06 0.06 0.05 0.03 0.02 0.02 0.01 0.01 0.03 0.03 0.04 0.04 0.04 0.03 0.02 0.02
0.00 0.00 0.00 0.00 0.00 0.00 0.00 0.00 0.00 0.00 0.00 0.00 0.00 0.00 0.00 0.00 0.00 0.00 0.00 0.01 0.01 0.01 0.01 0.01 0.01 0.03 0.05 0.07 0.07 0.09 0.10 0.10 0.08 0.06 0.05 0.04 0.03 0.02 0.02 0.02 0.01 0.01 0.02 0.03 0.03 0.03 0.03 0.02 0.02
0.00 0.00 0.00 0.00 0.00 0.00 0.00 0.00 0.00 0.00 0.00 0.00 0.00 0.00 0.00 0.00 0.01 0.01 0.01 0.01 0.01 0.01 0.01 0.01 0.02 0.03 0.03 0.04 0.05 0.06 0.09 0.11 0.09 0.08 0.06 0.05 0.04 0.03 0.03 0.01 0.01 0.01 0.02 0.02 0.03 0.04 0.03 0.02 0.01
0.00 0.00 0.00 0.00 0.00 0.00 0.00 0.00 0.00 0.00 0.00 0.00 0.00 0.00 0.00 0.00 0.01 0.01 0.02 0.01 0.01 0.01 0.01 0.01 0.02 0.02 0.04 0.06 0.05 0.04 0.06 0.08 0.07 0.06 0.06 0.04 0.04 0.03 0.02 0.02 0.02 0.01 0.01 0.02 0.03 0.05 0.06 0.03 0.01
0.01 0.00 0.00 0.00 0.00 0.00 0.00 0.00 0.00 0.00 0.00 0.00 0.00 0.00 0.00 0.01 0.01 0.01 0.02 0.01 0.01 0.01 0.01 0.01 0.02 0.02 0.02 0.05 0.07 0.07 0.06 0.05 0.04 0.04 0.04 0.03 0.02 0.03 0.02 0.03 0.02 0.02 0.02 0.01 0.02 0.02 0.04 0.04 0.03
0.01 0.00 0.00 0.00 0.00 0.00 0.00 0.00 0.00 0.00 0.00 0.00 0.00 0.00 0.01 0.01 0.01 0.01 0.02 0.02 0.01 0.01 0.02 0.02 0.02 0.02 0.02 0.02 0.03 0.05 0.07 0.07 0.04 0.03 0.03 0.03 0.03 0.02 0.02 0.03 0.02 0.02 0.02 0.01 0.01 0.02 0.03 0.04 0.04
0.01 0.00 0.00 0.00 0.00 0.00 0.00 0.00 0.00 0.00 0.00 0.00 0.00 0.00 0.00 0.01 0.01 0.01 0.01 0.02 0.02 0.02 0.02 0.03 0.03 0.03 0.03 0.03 0.03 0.03 0.04 0.05 0.05 0.03 0.03 0.02 0.03 0.03 0.02 0.02 0.02 0.02 0.02 0.02 0.01 0.01 0.02 0.03 0.04
0.02 0.01 0.00 0.00 0.00 0.00 0.00 0.00 0.00 0.00 0.00 0.00 0.00 0.00 0.00 0.00 0.01 0.01 0.01 0.01 0.03 0.03 0.03 0.04 0.04 0.05 0.04 0.03 0.03 0.03 0.03 0.04 0.04 0.04 0.04 0.05 0.04 0.04 0.04 0.03 0.03 0.02 0.01 0.01 0.01 0.01 0.02 0.02 0.03
0.03 0.01 0.01 0.00 0.00 0.00 0.00 0.00 0.00 0.00 0.00 0.00 0.00 0.00 0.01 0.01 0.01 0.01 0.01 0.01 0.02 0.03 0.04 0.05 0.05 0.06 0.06 0.05 0.04 0.04 0.04 0.04 0.05 0.04 0.04 0.05 0.07 0.07 0.06 0.05 0.05 0.04 0.02 0.02 0.02 0.02 0.02 0.02 0.02
0.03 0.02 0.01 0.01 0.00 0.00 0.00 0.00 0.00 0.00 0.00 0.00 0.00 0.00 0.00 0.01 0.01 0.01 0.01 0.00 0.01 0.02 0.04 0.05 0.05 0.06 0.07 0.06 0.06 0.06 0.08 0.08 0.07 0.07 0.06 0.05 0.06 0.07 0.07 0.06 0.06 0.05 0.04 0.03 0.02 0.02 0.02 0.02 0.02
0.03 0.03 0.03 0.02 0.01 0.00 0.00 0.00 0.00 0.00 0.00 0.00 0.00 0.00 0.00 0.00 0.01 0.01 0.01 0.00 0.00 0.01 0.02 0.03 0.04 0.04 0.05 0.06 0.07 0.07 0.07 0.09 0.09 0.10 0.11 0.09 0.07 0.05 0.05 0.05 0.05 0.05 0.05 0.04 0.02 0.02 0.02 0.02 0.02
0.04 0.04 0.03 0.02 0.01 0.00 0.00 0.00 0.00 0.00 0.00 0.00 0.00 0.00 0.00 0.00 0.00 0.00 0.00 0.00 0.01 0.01 0.01 0.02 0.03 0.04 0.04 0.05 0.06 0.07 0.06 0.07 0.07 0.06 0.07 0.08 0.09 0.09 0.07 0.05 0.04 0.04 0.04 0.04 0.02 0.02 0.01 0.02 0.02
0.02 0.02 0.03 0.03 0.03 0.01 0.00 0.00 0.00 0.00 0.00 0.00 0.00 0.00 0.00 0.00 0.00 0.00 0.00 0.00 0.00 0.00 0.01 0.02 0.02 0.03 0.05 0.05 0.05 0.06 0.07 0.07 0.06 0.06 0.06 0.05 0.05 0.06 0.07 0.06 0.04 0.04 0.05 0.05 0.05 0.03 0.03 0.03 0.03
0.01 0.01 0.02 0.02 0.02 0.01 0.00 0.00 0.00 0.00 0.01 0.00 0.00 0.00 0.00 0.00 0.00 0.00 0.00 0.00 0.01 0.00 0.00 0.01 0.01 0.02 0.04 0.05 0.05 0.05 0.05 0.07 0.08 0.07 0.07 0.07 0.07 0.06 0.05 0.05 0.05 0.04 0.04 0.05 0.06 0.06 0.05 0.04 0.04
0.01 0.02 0.01 0.01 0.01 0.01 0.00 0.00 0.00 0.01 0.01 0.01 0.00 0.00 0.00 0.00 0.00 0.00 0.00 0.00 0.01 0.01 0.01 0.01 0.01 0.02 0.02 0.03 0.04 0.05 0.05 0.06 0.07 0.08 0.08 0.07 0.07 0.08 0.07 0.05 0.04 0.04 0.04 0.04 0.04 0.06 0.06 0.06 0.05
0.01 0.01 0.01 0.01 0.01 0.01 0.01 0.01 0.00 0.01 0.01 0.01 0.01 0.00 0.00 0.00 0.00 0.00 0.00 0.00 0.00 0.00 0.00 0.00 0.01 0.02 0.03 0.03 0.04 0.06 0.06 0.06 0.06 0.07 0.09 0.10 0.08 0.07 0.08 0.08 0.06 0.05 0.05 0.04 0.03 0.03 0.04 0.05 0.06
0.01 0.00 0.01 0.01 0.01 0.02 0.01 0.01 0.01 0.01 0.01 0.01 0.01 0.00 0.00 0.00 0.00 0.00 0.00 0.00 0.00 0.00 0.00 0.00 0.00 0.01 0.03 0.04 0.04 0.05 0.06 0.06 0.05 0.06 0.07 0.10 0.13 0.12 0.09 0.08 0.07 0.06 0.05 0.04 0.04 0.04 0.03 0.03 0.04
0.01 0.01 0.01 0.01 0.01 0.01 0.01 0.01 0.01 0.01 0.00 0.01 0.01 0.01 0.01 0.00 0.00 0.00 0.00 0.00 0.00 0.00 0.00 0.00 0.00 0.00 0.01 0.04 0.05 0.04 0.04 0.05 0.06 0.06 0.07 0.08 0.10 0.13 0.13 0.11 0.08 0.07 0.06 0.05 0.05 0.05 0.04 0.04 0.03
0.01 0.01 0.01 0.02 0.03 0.03 0.01 0.01 0.00 0.00 0.01 0.01 0.01 0.01 0.01 0.00 0.00 0.00 0.00 0.00 0.00 0.00 0.00 0.00 0.00 0.00 0.00 0.01 0.04 0.06 0.05 0.05 0.06 0.05 0.06 0.07 0.08 0.09 0.11 0.13 0.11 0.08 0.06 0.05 0.04 0.04 0.04 0.04 0.03
0.01 0.01 0.02 0.03 0.04 0.03 0.01 0.01 0.00 0.00 0.01 0.01 0.01 0.01 0.01 0.01 0.00 0.00 0.00 0.00 0.00 0.00 0.00 0.00 0.00 0.00 0.00 0.00 0.01 0.03 0.05 0.06 0.07 0.07 0.07 0.07 0.07 0.08 0.09 0.11 0.11 0.09 0.07 0.04 0.04 0.04 0.04 0.04 0.03
0.01 0.01 0.01 0.02 0.01 0.01 0.01 0.01 0.00 0.00 0.00 0.00 0.01 0.01 0.00 0.00 0.00 0.00 0.00 0.00 0.00 0.00 0.01 0.01 0.00 0.00 0.00 0.00 0.00 0.01 0.02 0.03 0.04 0.05 0.06 0.07 0.07 0.07 0.08 0.10 0.11 0.10 0.09 0.07 0.04 0.03 0.03 0.03 0.03
0.01 0.01 0.01 0.01 0.01 0.00 0.01 0.01 0.00 0.00 0.00 0.00 0.00 0.01 0.00 0.00 0.00 0.00 0.00 0.00 0.00 0.00 0.01 0.01 0.01 0.01 0.00 0.00 0.00 0.00 0.01 0.01 0.02 0.02 0.03 0.04 0.05 0.06 0.07 0.08 0.10 0.10 0.09 0.09 0.07 0.05 0.03 0.02 0.02
0.00 0.01 0.01 0.02 0.01 0.01 0.00 0.00 0.00 0.00 0.00 0.00 0.00 0.00 0.00 0.00 0.00 0.00 0.00 0.00 0.00 0.00 0.00 0.00 0.01 0.01 0.01 0.01 0.01 0.01 0.01 0.01 0.01 0.01 0.02 0.02 0.03 0.03 0.04 0.06 0.08 0.08 0.08 0.08 0.08 0.08 0.05 0.03 0.03
0.00 0.01 0.01 0.02 0.01 0.01 0.01 0.00 0.00 0.01 0.00 0.00 0.00 0.00 0.00 0.00 0.00 0.00 0.00 0.00 0.00 0.00 0.00 0.00 0.00 0.01 0.01 0.01 0.01 0.01 0.01 0.01 0.01 0.02 0.02 0.02 0.02 0.02 0.02 0.03 0.06 0.09 0.10 0.09 0.09 0.09 0.08 0.06 0.04
0.00 0.01 0.01 0.02 0.02 0.01 0.01 0.01 0.01 0.00 0.01 0.01 0.01 0.00 0.00 0.00 0.00 0.00 0.00 0.00 0.00 0.00 0.00 0.00 0.00 0.01 0.01 0.01 0.01 0.01 0.02 0.02 0.02 0.02 0.02 0.02 0.01 0.01 0.01 0.02 0.03 0.04 0.08 0.10 0.10 0.09 0.09 0.09 0.08
MSLP
1012.64 1013.06 1013.69 1014.46 1015.28 1016.04 1016.66 1017.07 1017.27 1017.28 1017.20 1017.12 1017.13 1017.29 1017.59 1017.98 1018.38 1018.66 1018.71 1018.46 1017.89 1017.06 1016.06 1015.03 1014.09 1013.36 1012.89 1012.68 1012.69 1012.86 1013.10 1013.35 1013.57 1013.75 1013.92 1014.09 1014.30 1014.54 1014.82 1015.10 1015.35 1015.54 1015.66 1015.69 1015.65 1015.57 1015.47 1015.38 1015.31
1013.23 1013.73 1014.39 1015.13 1015.85 1016.47 1016.93 1017.20 1017.29 1017.26 1017.21 1017.22 1017.36 1017.66 1018.09 1018.59 1019.03 1019.30 1019.30 1018.97 1018.31 1017.39 1016.32 1015.22 1014.24 1013.48 1012.97 1012.74 1012.73 1012.87 1013.11 1013.36 1013.60 1013.82 1014.03 1014.24 1014.48 1014.75 1015.04 1015.33 1015.58 1015.77 1015.89 1015.93 1015.90 1015.82 1015.73 1015.65 1015.59
1013.87 1014.42 1015.06 1015.71 1016.29 1016.74 1017.02 1017.14 1017.13 1017.08 1017.08 1017.19 1017.47 1017.91 1018.47 1019.06 1019.55 1019.82 1019.79 1019.43 1018.74 1017.80 1016.72 1015.62 1014.65 1013.89 1013.37 1013.12 1013.07 1013.18 1013.37 1013.60 1013.83 1014.05 1014.27 1014.50 1014.75 1015.02 1015.31 1015.59 1015.83 1016.01 1016.12 1016.16 1016.13 1016.07 1015.99 1015.93 1015.89
1014.51 1015.07 1015.66 1016.20 1016.62 1016.89 1017.00 1016.98 1016.90 1016.85 1016.90 1017.13 1017.54 1018.11 1018.77 1019.43 1019.95 1020.23 1020.20 1019.84 1019.17 1018.28 1017.27 1016.25 1015.34 1014.62 1014.12 1013.84 1013.75 1013.79 1013.93 1014.10 1014.29 1014.49 1014.70 1014.92 1015.17 1015.43 1015.70 1015.95 1016.17 1016.33 1016.41 1016.44 1016.41 1016.35 1016.28 1016.23 1016.21
1015.09 1015.64 1016.17 1016.59 1016.86 1016.97 1016.94 1016.83 1016.72 1016.69 1016.83 1017.16 1017.68 1018.34 1019.07 1019.76 1020.29 1020.57 1020.55 1020.23 1019.64 1018.86 1017.97 1017.08 1016.28 1015.63 1015.16 1014.86 1014.72 1014.69 1014.75 1014.85 1014.99 1015.15 1015.33 1015.54 1015.77 1016.02 1016.26 1016.48 1016.65 1016.77 1016.82 1016.82 1016.77 1016.71 1016.64 1016.58 1016.56
1015.56 1016.10 1016.57 1016.89 1017.06 1017.06 1016.96 1016.81 1016.72 1016.75 1016.97 1017.40 1018.00 1018.71 1019.45 1020.12 1020.63 1020.89 1020.89 1020.62 1020.14 1019.50 1018.78 1018.05 1017.40 1016.84 1016.41 1016.10 1015.91 1015.81 1015.78 1015.81 1015.89 1016.02 1016.18 1016.37 1016.59 1016.81 1017.01 1017.18 1017.31 1017.37 1017.38 1017.34 1017.26 1017.16 1017.07 1017.00 1016.96
1015.92 1016.44 1016.87 1017.14 1017.24 1017.21 1017.10 1016.99 1016.97 1017.10 1017.42 1017.92 1018.57 1019.29 1019.99 1020.59 1021.02 1021.24 1021.23 1021.02 1020.64 1020.16 1019.62 1019.07 1018.56 1018.11 1017.73 1017.43 1017.19 1017.03 1016.93 1016.91 1016.95 1017.05 1017.20 1017.39 1017.59 1017.78 1017.95 1018.07 1018.13 1018.13 1018.08 1017.98 1017.85 1017.71 1017.58 1017.47 1017.39
1016.17 1016.68 1017.08 1017.33 1017.44 1017.43 1017.38 1017.37 1017.47 1017.72 1018.15 1018.72 1019.38 1020.06 1020.68 1021.18 1021.50 1021.64 1021.60 1021.42 1021.14 1020.79 1020.42 1020.04 1019.68 1019.33 1019.00 1018.70 1018.45 1018.24 1018.11 1018.05 1018.08 1018.18 1018.34 1018.53 1018.72 1018.89 1019.01 1019.07 1019.06 1018.98 1018.86 1018.69 1018.50 1018.30 1018.12 1017.96 1017.83
1016.36 1016.84 1017.23 1017.48 1017.63 1017.70 1017.76 1017.89 1018.14 1018.54 1019.08 1019.71 1020.37 1020.99 1021.50 1021.86 1022.05 1022.08 1021.99 1021.82 1021.60 1021.37 1021.13 1020.89 1020.64 1020.38 1020.11 1019.83 1019.58 1019.37 1019.22 1019.17 1019.21 1019.33 1019.51 1019.70 1019.89 1020.02 1020.09 1020.08 1020.00 1019.85 1019.64 1019.41 1019.15 1018.90 1018.66 1018.44 1018.26
1016.49 1016.95 1017.32 1017.59 1017.79 1017.97 1018.17 1018.46 1018.88 1019.43 1020.08 1020.76 1021.41 1021.96 1022.35 1022.57 1022.63 1022.55 1022.39 1022.21 1022.02 1021.86 1021.72 1021.58 1021.43 1021.24 1021.02 1020.77 1020.54 1020.34 1020.22 1020.20 1020.28 1020.43 1020.63 1020.83 1021.00 1021.10 1021.11 1021.03 1020.87 1020.64 1020.36 1020.07 1019.76 1019.45 1019.16 1018.90 1018.67
1016.62 1017.03 1017.38 1017.66 1017.92 1018.19 1018.52 1018.97 1019.55 1020.24 1020.99 1021.73 1022.38 1022.87 1023.17 1023.27 1023.21 1023.03 1022.80 1022.58 1022.41 1022.28 1022.19 1022.12 1022.03 1021.89 1021.72 1021.51 1021.32 1021.16 1021.09 1021.11 1021.23 1021.42 1021.63 1021.84 1021.98 1022.03 1021.98 1021.83 1021.59 1021.30 1020.97 1020.62 1020.28 1019.94 1019.62 1019.33 1019.06
1016.75 1017.11 1017.42 1017.70 1017.99 1018.33 1018.78 1019.36 1020.07 1020.89 1021.73 1022.52 1023.18 1023.64 1023.88 1023.90 1023.76 1023.51 1023.22 1022.97 1022.78 1022.66 1022.59 1022.55 1022.49 1022.39 1022.25 1022.10 1021.95 1021.85 1021.83 1021.90 1022.06 1022.27 1022.49 1022.68 1022.78 1022.78 1022.67 1022.45 1022.15 1021.81 1021.45 1021.08 1020.72 1020.38 1020.05 1019.73 1019.44
1016.93 1017.23 1017.49 1017.74 1018.04 1018.42 1018.93 1019.60 1020.41 1021.32 1022.24 1023.09 1023.78 1024.25 1024.47 1024.47 1024.29 1024.00 1023.69 1023.41 1023.19 1023.05 1022.98 1022.93 1022.88 1022.80 1022.69 1022.57 1022.48 1022.43 1022.46 1022.58 1022.77 1022.99 1023.20 1023.35 1023.41 1023.35 1023.17 1022.91 1022.57 1022.21 1021.83 1021.47 1021.12 1020.79 1020.46 1020.14 1019.85
1017.19 1017.42 1017.62 1017.83 1018.10 1018.48 1019.02 1019.73 1020.60 1021.56 1022.55 1023.45 1024.19 1024.71 1024.97 1024.99 1024.83 1024.55 1024.22 1023.92 1023.68 1023.51 1023.40 1023.32 1023.25 1023.18 1023.09 1023.01 1022.96 1022.97 1023.05 1023.19 1023.39 1023.61 1023.79 1023.89 1023.89 1023.77 1023.55 1023.25 1022.90 1022.54 1022.19 1021.85 1021.53 1021.22 1020.91 1020.60 1020.29
1017.55 1017.72 1017.86 1018.02 1018.25 1018.60 1019.12 1019.83 1020.70 1021.70 1022.72 1023.68 1024.49 1025.07 1025.41 1025.50 1025.40 1025.15 1024.85 1024.53 1024.26 1024.05 1023.88 1023.76 1023.66 1023.57 1023.50 1023.45 1023.44 1023.49 1023.60 1023.76 1023.96 1024.15 1024.29 1024.34 1024.29 1024.13 1023.88 1023.57 1023.23 1022.89 1022.58 1022.28 1022.00 1021.72 1021.43 1021.12 1020.81
1018.02 1018.15 1018.25 1018.36 1018.53 1018.83 1019.31 1019.97 1020.83 1021.81 1022.85 1023.85 1024.72 1025.39 1025.83 1026.02 1026.00 1025.82 1025.55 1025.24 1024.93 1024.67 1024.44 1024.26 1024.12 1024.01 1023.94 1023.91 1023.93 1024.01 1024.14 1024.32 1024.50 1024.65 1024.75 1024.75 1024.66 1024.48 1024.22 1023.93 1023.62 1023.33 1023.06 1022.81 1022.57 1022.31 1022.03 1021.72 1021.39
1018.62 1018.74 1018.81 1018.87 1018.99 1019.23 1019.63 1020.23 1021.02 1021.96 1022.98 1024.00 1024.92 1025.68 1026.22 1026.53 1026.61 1026.51 1026.29 1025.98 1025.65 1025.34 1025.05 1024.81 1024.62 1024.49 1024.41 1024.40 1024.44 1024.55 1024.70 1024.87 1025.03 1025.16 1025.21 1025.18 1025.06 1024.87 1024.63 1024.36 1024.10 1023.86 1023.64 1023.44 1023.23 1022.99 1022.71 1022.39 1022.03
1019.34 1019.46 1019.52 1019.56 1019.62 1019.79 1020.10 1020.60 1021.29 1022.16 1023.13 1024.13 1025.09 1025.91 1026.55 1026.97 1027.17 1027.16 1026.99 1026.70 1026.36 1026.00 1025.67 1025.37 1025.14 1024.99 1024.91 1024.91 1024.98 1025.10 1025.26 1025.43 1025.58 1025.67 1025.70 1025.65 1025.52 1025.33 1025.11 1024.89 1024.67 1024.48 1024.31 1024.14 1023.95 1023.72 1023.43 1023.09 1022.70
1020.16 1020.30 1020.36 1020.38 1020.40 1020.48 1020.69 1021.07 1021.63 1022.38 1023.26 1024.22 1025.17 1026.04 1026.76 1027.28 1027.58 1027.67 1027.57 1027.33 1026.99 1026.61 1026.24 1025.92 1025.66 1025.49 1025.42 1025.43 1025.52 1025.66 1025.83 1026.00 1026.13 1026.21 1026.22 1026.15 1026.02 1025.86 1025.67 1025.48 1025.30 1025.15 1025.01 1024.86 1024.68 1024.44 1024.15 1023.79 1023.38
1021.03 1021.20 1021.28 1021.28 1021.26 1021.26 1021.35 1021.58 1021.98 1022.57 1023.33 1024.20 1025.11 1025.99 1026.77 1027.38 1027.79 1027.98 1027.97 1027.79 1027.49 1027.13 1026.75 1026.42 1026.16 1025.99 1025.93 1025.97 1026.08 1026.24 1026.41 1026.58 1026.70 1026.77 1026.76 1026.69 1026.57 1026.41 1026.25 1026.09 1025.94 1025.81 1025.68 1025.54 1025.35 1025.12 1024.81 1024.45 1024.04
1021.92 1022.12 1022.22 1022.22 1022.14 1022.06 1022.01 1022.07 1022.29 1022.70 1023.29 1024.04 1024.88 1025.74 1026.55 1027.24 1027.75 1028.05 1028.14 1028.06 1027.83 1027.52 1027.18 1026.87 1026.64 1026.49 1026.45 1026.51 1026.64 1026.82 1027.00 1027.17 1027.28 1027.33 1027.31 1027.24 1027.12 1026.97 1026.81 1026.67 1026.53 1026.41 1026.27 1026.12 1025.93 1025.69 1025.39 1025.04 1024.65
1022.77 1023.02 1023.14 1023.13 1023.01 1022.83 1022.65 1022.54 1022.56 1022.77 1023.17 1023.77 1024.50 1025.32 1026.14 1026.89 1027.49 1027.91 1028.12 1028.15 1028.03 1027.81 1027.54 1027.29 1027.10 1026.99 1026.99 1027.07 1027.22 1027.41 1027.60 1027.75 1027.86 1027.89 1027.86 1027.77 1027.65 1027.49 1027.34 1027.18 1027.04 1026.90 1026.75 1026.58 1026.39 1026.15 1025.87 1025.55 1025.21
1023.56 1023.85 1024.00 1023.98 1023.83 1023.56 1023.25 1022.97 1022.80 1022.80 1023.02 1023.45 1024.07 1024.83 1025.64 1026.42 1027.11 1027.64 1027.98 1028.14 1028.13 1028.02 1027.85 1027.68 1027.55 1027.49 1027.53 1027.64 1027.80 1028.00 1028.18 1028.32 1028.41 1028.43 1028.38 1028.28 1028.14 1027.97 1027.80 1027.62 1027.45 1027.29 1027.11 1026.93 1026.72 1026.50 1026.25 1025.98 1025.69
1024.26 1024.60 1024.77 1024.77 1024.58 1024.25 1023.83 1023.41 1023.07 1022.89 1022.93 1023.21 1023.71 1024.39 1025.17 1025.98 1026.72 1027.34 1027.80 1028.08 1028.20 1028.20 1028.13 1028.05 1027.99 1027.99 1028.05 1028.19 1028.36 1028.55 1028.72 1028.85 1028.92 1028.92 1028.85 1028.73 1028.57 1028.39 1028.19 1027.99 1027.79 1027.59 1027.39 1027.18 1026.97 1026.75 1026.54 1026.32 1026.10
1024.86 1025.23 1025.44 1025.45 1025.26 1024.89 1024.40 1023.87 1023.40 1023.09 1022.99 1023.14 1023.53 1024.13 1024.88 1025.68 1026.46 1027.14 1027.68 1028.06 1028.28 1028.38 1028.40 1028.39 1028.40 1028.44 1028.54 1028.69 1028.86 1029.04 1029.20 1029.31 1029.35 1029.34 1029.25 1029.12 1028.95 1028.75 1028.53 1028.31 1028.07 1027.84 1027.60 1027.37 1027.15 1026.94 1026.76 1026.58 1026.43
1025.34 1025.76 1026.00 1026.03 1025.84 1025.46 1024.94 1024.36 1023.83 1023.44 1023.25 1023.31 1023.63 1024.16 1024.86 1025.64 1026.41 1027.12 1027.69 1028.13 1028.41 1028.57 1028.66 1028.70 1028.75 1028.83 1028.95 1029.09 1029.26 1029.43 1029.57 1029.66 1029.69 1029.65 1029.57 1029.43 1029.25 1029.04 1028.81 1028.57 1028.31 1028.05 1027.79 1027.53 1027.29 1027.08 1026.91 1026.77 1026.65
1025.73 1026.16 1026.41 1026.46 1026.29 1025.92 1025.41 1024.84 1024.31 1023.90 1023.70 1023.73 1024.00 1024.49 1025.14 1025.87 1026.61 1027.29 1027.86 1028.29 1028.59 1028.78 1028.89 1028.97 1029.04 1029.13 1029.25 1029.39 1029.55 1029.69 1029.81 1029.88 1029.89 1029.85 1029.76 1029.62 1029.45 1029.25 1029.02 1028.77 1028.51 1028.23 1027.94 1027.66 1027.40 1027.18 1027.00 1026.86 1026.76
1026.02 1026.43 1026.67 1026.71 1026.54 1026.20 1025.74 1025.23 1024.76 1024.41 1024.25 1024.31 1024.59 1025.06 1025.66 1026.34 1027.02 1027.64 1028.15 1028.54 1028.81 1028.98 1029.09 1029.16 1029.23 1029.32 1029.44 1029.57 1029.71 1029.83 1029.92 1029.97 1029.97 1029.92 1029.83 1029.70 1029.54 1029.36 1029.14 1028.90 1028.64 1028.35 1028.05 1027.75 1027.46 1027.21 1027.00 1026.85 1026.74
1026.24 1026.57 1026.74 1026.73 1026.55 1026.23 1025.83 1025.41 1025.05 1024.83 1024.78 1024.93 1025.26 1025.75 1026.34 1026.97 1027.58 1028.11 1028.54 1028.85 1029.05 1029.18 1029.25 1029.31 1029.37 1029.45 1029.55 1029.66 1029.77 1029.86 1029.92 1029.94 1029.92 1029.86 1029.76 1029.64 1029.49 1029.33 1029.14 1028.92 1028.67 1028.38 1028.08 1027.76 1027.45 1027.16 1026.91 1026.72 1026.58
1026.41 1026.60 1026.64 1026.53 1026.29 1025.97 1025.63 1025.32 1025.11 1025.05 1025.17 1025.45 1025.89 1026.44 1027.04 1027.63 1028.17 1028.62 1028.96 1029.18 1029.31 1029.38 1029.41 1029.44 1029.48 1029.55 1029.63 1029.72 1029.79 1029.85 1029.87 1029.85 1029.79 1029.69 1029.58 1029.45 1029.31 1029.16 1028.99 1028.79 1028.56 1028.29 1027.98 1027.66 1027.32 1027.00 1026.72 1026.48 1026.29
Thickness
5683 5685 5685 5677 5658 5640 5643 5652 5657 5659 5660 5662 5664 5663 5662 5660 5660 5658 5658 5663 5666 5667 5668 5670 5672 5673 5673 5673 5673 5673 5674 5674 5675 5675 5676 5676 5677 5678 5679 5680 5681 5681 5682 5683 5684 5685 5686 5686 5686
5679 5680 5674 5660 5642 5632 5640 5650 5653 5657 5659 5658 5657 5658 5656 5653 5653 5653 5654 5657 5660 5662 5663 5665 5667 5667 5667 5667 5667 5668 5668 5668 5669 5670 5671 5671 5672 5672 5673 5674 5674 5675 5676 5677 5678 5679 5680 5680 5681
5674 5673 5659 5645 5635 5634 5645 5651 5650 5652 5654 5654 5650 5648 5648 5647 5646 5646 5648 5651 5654 5656 5657 5659 5660 5661 5661 5661 5661 5662 5662 5662 5663 5664 5664 5665 5666 5666 5667 5667 5668 5669 5670 5671 5672 5673 5673 5674 5675
5667 5658 5647 5637 5636 5639 5646 5650 5648 5648 5649 5648 5646 5641 5640 5638 5637 5640 5643 5645 5647 5648 5650 5652 5653 5654 5654 5655 5655 5655 5655 5656 5656 5657 5657 5658 5659 5660 5660 5661 5662 5662 5663 5664 5665 5666 5667 5668 5668
5656 5645 5634 5626 5633 5638 5641 5645 5646 5645 5642 5640 5640 5637 5634 5631 5633 5635 5637 5638 5639 5640 5642 5643 5645 5646 5646 5647 5647 5647 5648 5649 5649 5649 5650 5651 5651 5652 5653 5653 5654 5655 5656 5657 5658 5659 5660 5661 5662
5641 5634 5623 5621 5630 5635 5638 5641 5642 5638 5634 5632 5632 5631 5628 5625 5627 5628 5630 5630 5631 5632 5633 5634 5635 5636 5637 5638 5639 5639 5640 5640 5641 5641 5642 5643 5643 5644 5645 5646 5647 5648 5649 5650 5651 5652 5653 5654 5655
5633 5625 5620 5623 5625 5631 5635 5635 5633 5631 5627 5624 5625 5624 5621 5619 5619 5621 5622 5622 5623 5624 5624 5625 5626 5627 5628 5628 5629 5630 5631 5631 5632 5632 5633 5633 5634 5635 5636 5637 5639 5640 5641 5642 5643 5644 5645 5647 5648
5631 5622 5618 5616 5622 5628 5630 5628 5626 5625 5620 5617 5617 5617 5613 5612 5612 5613 5613 5613 5614 5614 5615 5615 5616 5617 5618 5618 5619 5620 5620 5621 5622 5622 5623 5623 5624 5625 5626 5628 5630 5631 5633 5634 5635 5636 5637 5639 5640
5629 5614 5611 5616 5619 5624 5623 5620 5617 5615 5612 5609 5605 5605 5604 5604 5604 5604 5604 5604 5605 5604 5605 5605 5607 5608 5608 5608 5608 5609 5610 5610 5611 5612 5612 5613 5615 5616 5617 5618 5620 5622 5623 5624 5626 5628 5629 5630 5631
5618 5608 5615 5618 5619 5619 5614 5612 5608 5607 5603 5599 5597 5595 5595 5595 5595 5595 5594 5594 5594 5594 5594 5595 5596 5597 5598 5598 5598 5598 5600 5600 5601 5602 5602 5603 5605 5606 5607 5609 5610 5612 5613 5615 5616 5618 5619 5621 5623
5613 5608 5611 5611 5612 5612 5606 5601 5600 5600 5593 5591 5590 5587 5586 5586 5585 5584 5583 5583 5583 5583 5583 5584 5586 5586 5587 5587 5588 5588 5589 5590 5590 5591 5592 5593 5595 5596 5597 5598 5600 5601 5603 5604 5606 5608 5610 5611 5614
5602 5601 5603 5603 5604 5602 5597 5593 5587 5585 5585 5585 5583 5580 5578 5577 5576 5575 5573 5573 5573 5573 5573 5574 5575 5576 5577 5577 5578 5578 5578 5579 5579 5580 5582 5583 5584 5585 5587 5588 5589 5591 5592 5594 5596 5598 5599 5601 5604
5596 5594 5594 5591 5590 5587 5584 5580 5577 5573 5572 5573 5572 5570 5568 5567 5566 5564 5564 5564 5564 5563 5563 5563 5565 5566 5567 5567 5567 5567 5567 5568 5568 5569 5571 5573 5574 5575 5576 5577 5579 5580 5582 5584 5586 5588 5590 5591 5594
5588 5585 5584 5584 5583 5581 5576 5570 5568 5565 5563 5562 5561 5558 5556 5555 5554 5553 5553 5553 5552 5553 5552 5553 5554 5555 5556 5556 5556 5556 5557 5557 5558 5560 5561 5562 5564 5565 5566 5567 5568 5570 5572 5573 5575 5577 5579 5581 5583
5581 5578 5576 5575 5575 5572 5572 5564 5557 5556 5554 5551 5548 5546 5544 5542 5542 5541 5541 5540 5540 5541 5541 5542 5543 5543 5544 5545 5545 5545 5546 5547 5548 5549 5550 5551 5553 5554 5556 5557 5558 5559 5561 5563 5565 5566 5568 5570 5573
5572 5569 5567 5567 5564 5563 5565 5560 5551 5545 5544 5540 5536 5534 5532 5530 5529 5529 5529 5528 5528 5529 5529 5529 5530 5531 5532 5533 5534 5534 5534 5535 5536 5537 5538 5540 5541 5543 5545 5546 5547 5549 5550 5552 5554 5555 5556 5558 5561
5555 5554 5557 5557 5552 5550 5550 5547 5541 5535 5534 5530 5525 5522 5520 5518 5518 5517 5516 5516 5516 5516 5516 5517 5517 5518 5519 5520 5521 5522 5522 5523 5524 5526 5527 5528 5530 5532 5534 5536 5537 5538 5539 5540 5542 5544 5545 5546 5549
5549 5543 5543 5543 5540 5537 5533 5530 5527 5523 5523 5517 5513 5510 5508 5506 5505 5505 5503 5503 5503 5502 5502 5503 5504 5505 5505 5506 5508 5509 5510 5511 5512 5513 5514 5516 5518 5521 5523 5525 5526 5527 5528 5529 5530 5532 5533 5534 5536
5540 5535 5533 5532 5527 5525 5522 5521 5517 5513 5509 5504 5500 5497 5496 5494 5493 5492 5491 5490 5489 5489 5489 5489 5490 5490 5491 5492 5494 5495 5496 5498 5499 5501 5502 5504 5506 5509 5511 5513 5514 5516 5517 5517 5519 5520 5521 5522 5524
5527 5524 5519 5517 5516 5514 5507 5508 5508 5504 5500 5495 5492 5487 5485 5483 5481 5480 5478 5476 5475 5474 5474 5475 5475 5476 5477 5478 5479 5481 5482 5484 5485 5488 5490 5492 5494 5496 5498 5501 5502 5504 5505 5506 5507 5509 5509 5509 5511
5515 5512 5510 5506 5503 5500 5496 5506 5501 5496 5490 5486 5481 5478 5474 5473 5469 5467 5465 5462 5461 5460 5459 5461 5460 5462 5463 5464 5466 5467 5469 5471 5472 5475 5477 5478 5481 5483 5485 5487 5490 5491 5493 5494 5495 5496 5498 5498 5498
5506 5501 5499 5495 5489 5483 5484 5486 5497 5483 5480 5477 5471 5466 5462 5460 5457 5454 5452 5449 5447 5446 5445 5445 5446 5447 5448 5450 5451 5452 5454 5455 5457 5459 5463 5465 5467 5470 5473 5475 5477 5479 5481 5482 5483 5484 5486 5486 5486
5489 5487 5484 5480 5472 5464 5462 5464 5481 5470 5474 5472 5464 5458 5452 5447 5444 5441 5439 5436 5434 5432 5431 5431 5432 5433 5434 5435 5437 5438 5439 5440 5443 5446 5449 5452 5454 5456 5459 5462 5464 5465 5467 5469 5470 5471 5473 5474 5475
5476 5473 5467 5456 5452 5457 5452 5449 5467 5460 5465 5464 5456 5447 5440 5435 5432 5429 5426 5424 5421 5419 5418 5418 5419 5419 5420 5421 5422 5424 5425 5427 5429 5431 5434 5438 5440 5442 5445 5448 5450 5452 5454 5456 5457 5458 5460 5462 5463
5467 5464 5459 5455 5442 5449 5438 5437 5454 5452 5445 5444 5442 5434 5428 5423 5419 5416 5413 5411 5409 5407 5406 5406 5406 5406 5406 5406 5407 5409 5411 5412 5414 5416 5420 5423 5426 5429 5431 5434 5436 5438 5440 5442 5444 5445 5447 5448 5449
5452 5455 5452 5446 5436 5431 5423 5427 5445 5434 5427 5425 5423 5419 5415 5410 5406 5403 5400 5398 5396 5395 5394 5393 5393 5392 5392 5393 5393 5395 5396 5398 5400 5402 5405 5408 5411 5414 5417 5419 5422 5424 5426 5428 5430 5432 5433 5435 5436
5441 5433 5432 5416 5399 5398 5413 5415 5427 5425 5421 5415 5411 5406 5401 5398 5394 5391 5388 5385 5383 5382 5381 5380 5379 5379 5379 5379 5379 5381 5382 5384 5386 5389 5391 5394 5397 5401 5404 5406 5408 5410 5412 5414 5415 5417 5419 5421 5423
5430 5421 5412 5409 5410 5409 5413 5408 5422 5423 5417 5408 5401 5394 5389 5385 5381 5378 5375 5374 5372 5370 5368 5367 5366 5365 5366 5366 5366 5368 5369 5371 5373 5375 5378 5380 5382 5386 5389 5391 5394 5396 5398 5400 5402 5403 5405 5407 5410
5413 5408 5404 5395 5394 5394 5396 5416 5412 5409 5405 5397 5390 5384 5378 5374 5370 5367 5364 5361 5360 5358 5356 5354 5353 5353 5353 5353 5354 5355 5356 5358 5360 5362 5364 5366 5369 5372 5374 5376 5379 5382 5385 5386 5388 5389 5391 5394 5396
5400 5398 5393 5398 5387 5369 5371 5398 5399 5388 5385 5382 5377 5373 5367 5362 5358 5355 5352 5349 5347 5345 5344 5342 5341 5341 5341 5341 5342 5344 5345 5346 5347 5349 5351 5353 5356 5358 5360 5362 5364 5367 5370 5372 5374 5375 5378 5380 5382